Bonaire, Netherlands

4:08 AM AST on December 11, 2017 (GMT -0400)
Flamingo

Weather History for TNCB - May, 2014

Change the Weather History Date:

Monday, May 12, 2014

  Actual Average Record
Temperature  
Mean Temperature 82 °F -  
Max Temperature 86 °F 86 °F 93 °F (2006)
Min Temperature 78 °F 80 °F 78 °F (2014)
Cooling Degree Days 17    
Growing Degree Days 32 (Base 50)    
Moisture  
Dew Point 73 °F    
Average Humidity 75    
Maximum Humidity 83    
Minimum Humidity 66    
Precipitation  
Precipitation 0.00 in - - ()
Sea Level Pressure  
Sea Level Pressure 29.88 in    
Wind  
Wind Speed 13 mph ()    
Max Wind Speed 22 mph    
Max Gust Speed -    
Visibility 6.2 miles    
Events      
Averages and records for this station are not official NWS values.
T = Trace of Precipitation, MM = Missing Value Source: Averaged Metar Reports

Daily Weather History Graph

Daily Weather History Graph

Search for Another Location

Airport or City:

Trip Planner

Search our weather history database for the weather conditions in past years. The results will help you decide how hot, cold, wet, or windy it might be!

Date:

Astronomy

May. 12, 2014 Rise Set
Actual Time 6:09 AM AST 6:49 PM AST
Civil Twilight 5:47 AM AST 7:11 PM AST
Nautical Twilight 5:20 AM AST 7:38 PM AST
Astronomical Twilight 4:54 AM AST 8:04 PM AST
Moon 5:04 PM AST (5/12) 4:20 AM AST (5/12)
Length of Visible Light 13h 24m
Length of Day
12h 39m
Waxing Gibbous, 95% of the Moon is Illuminated
May 12
Waxing Gibbous
May 14
Full
May 21
Last Quarter
May 28
New
Jun 5
First Quarter

Hourly Weather History & Observations

Time (AST) Temp. Heat Index Dew Point Humidity Pressure Visibility Wind Dir Wind Speed Gust Speed Precip Events Conditions
12:00 AM 78.8 °F - 73.4 °F 83% 29.92 in 6.2 mi ENE 12.7 mph - N/A   Partly Cloudy
1:00 AM 80.6 °F 85.4 °F 73.4 °F 79% 29.89 in - East 11.5 mph - N/A   Unknown
2:00 AM 78.8 °F - 73.4 °F 83% 29.86 in - East 10.4 mph - N/A   Unknown
3:00 AM 78.8 °F - 73.4 °F 83% 29.83 in - ENE 11.5 mph - N/A   Unknown
4:00 AM 78.8 °F - 73.4 °F 83% 29.83 in - East 11.5 mph - N/A   Unknown
5:00 AM 78.8 °F - 73.4 °F 83% 29.86 in - East 10.4 mph - N/A   Unknown
6:00 AM 78.8 °F - 73.4 °F 83% 29.86 in - East 16.1 mph - N/A   Unknown
7:00 AM 80.6 °F 85.4 °F 73.4 °F 79% 29.86 in - East 13.8 mph - N/A   Unknown
8:00 AM 80.6 °F 85.4 °F 73.4 °F 79% 29.89 in 6.2 mi East 15.0 mph - N/A   Scattered Clouds
9:00 AM 82.4 °F 88.2 °F 73.4 °F 74% 29.92 in - East 18.4 mph - N/A   Unknown
10:00 AM 84.2 °F 90.9 °F 73.4 °F 70% 29.92 in 6.2 mi East 20.7 mph - N/A   Scattered Clouds
10:55 AM 86.0 °F 93.4 °F 73.4 °F 66% 29.92 in 6.2 mi East 19.6 mph - N/A   Scattered Clouds
11:55 AM 86.0 °F 93.4 °F 73.4 °F 66% 29.92 in 6.2 mi East 17.3 mph - N/A   Scattered Clouds
12:00 PM 86.0 °F 93.4 °F 73.4 °F 66% 29.92 in 6.2 mi East 17.3 mph - N/A   Scattered Clouds
1:00 PM 86.0 °F 93.4 °F 73.4 °F 66% 29.92 in 6.2 mi East 18.4 mph - N/A   Scattered Clouds
2:00 PM 86.0 °F 93.4 °F 73.4 °F 66% 29.89 in 6.2 mi East 19.6 mph - N/A   Scattered Clouds
2:25 PM 86.0 °F 93.4 °F 73.4 °F 66% 29.86 in - ENE 21.9 mph - N/A   Unknown
3:55 PM 84.2 °F 90.9 °F 73.4 °F 70% 29.86 in 6.2 mi East 20.7 mph - N/A   Scattered Clouds
4:25 PM 84.2 °F 90.9 °F 73.4 °F 70% 29.83 in 6.2 mi East 19.6 mph - N/A   Scattered Clouds
5:00 PM 84.2 °F 90.9 °F 73.4 °F 70% 29.83 in 6.2 mi East 19.6 mph - N/A   Scattered Clouds
5:55 PM 82.4 °F 88.2 °F 73.4 °F 74% 29.83 in - ENE 20.7 mph - N/A   Unknown
6:55 PM 80.6 °F 85.4 °F 73.4 °F 79% 29.83 in - ENE 18.4 mph - N/A   Unknown
8:00 PM 80.6 °F 85.4 °F 73.4 °F 79% 29.86 in - ENE 17.3 mph - N/A   Unknown
10:00 PM 80.6 °F 85.4 °F 73.4 °F 79% 29.89 in - ENE 16.1 mph - N/A   Unknown
11:00 PM 80.6 °F 85.4 °F 73.4 °F 79% 29.92 in - ENE 13.8 mph - N/A   Unknown